Weather History for KEET - March, 2014

Change the Weather History Date:

Saturday, March 15, 2014

  Actual Average Record
Temperature  
Mean Temperature 60 °F 55 °F  
Max Temperature 67 °F 67 °F 84 °F (1982)
Min Temperature 53 °F 44 °F 24 °F (1970)
Degree Days  
Heating Degree Days 5 10  
Month to date heating degree days 182 176  
Since 1 July heating degree days 2461 2305  
Cooling Degree Days 0 0  
Month to date cooling degree days 0 0  
Year to date cooling degree days 4 4  
Growing Degree Days 10 (Base 50)    
Moisture  
Dew Point 49 °F    
Average Humidity 73    
Maximum Humidity 93    
Minimum Humidity 52    
Precipitation  
Precipitation 0.54 in 0.13 in 3.65 in (1956)
Month to date precipitation 2.33 2.33  
Year to date precipitation 10.86 13.41  
Snow  
Snow 0.00 in - - ()
Month to date snowfall 0.0  
Since 1 July snowfall 1.3  
Snow Depth 0.00 in    
Sea Level Pressure  
Sea Level Pressure 30.06 in    
Wind  
Wind Speed 2 mph (South)    
Max Wind Speed 8 mph    
Max Gust Speed 12 mph    
Visibility 10 miles    
Events Rain    
T = Trace of Precipitation, MM = Missing Value Source: NWS Daily Summary

Daily Weather History Graph

Daily Weather History Graph

Search for Another Location

Airport or City:

Trip Planner

Search our weather history database for the weather conditions in past years. The results will help you decide how hot, cold, wet, or windy it might be!

Date:

Astronomy

Mar. 15, 2014 Rise Set
Actual Time 6:57 AM CDT 6:55 PM CDT
Civil Twilight 6:32 AM CDT 7:19 PM CDT
Nautical Twilight 6:04 AM CDT 7:48 PM CDT
Astronomical Twilight 5:35 AM CDT 8:17 PM CDT
Moon 6:14 PM CDT (3/15) 6:07 AM CDT (3/15)
Length of Visible Light 12h 46m
Length of Day
11h 57m
Waxing Gibbous, 99% of the Moon is Illuminated
Mar 15
Waxing Gibbous
Mar 16
Full
Mar 23
Last Quarter
Mar 30
New
Apr 7
First Quarter

Hourly Weather History & Observations

Time (CDT) Temp. Dew Point Humidity Pressure Visibility Wind Dir Wind Speed Gust Speed Precip Events Conditions
12:53 AM 57.9 °F 41.0 °F 53% 30.11 in 10.0 mi South 6.9 mph - N/A   Overcast
1:53 AM 57.0 °F 42.1 °F 57% 30.10 in 10.0 mi SSW 5.8 mph - N/A   Overcast
2:53 AM 55.9 °F 44.1 °F 64% 30.10 in 10.0 mi South 4.6 mph - N/A   Overcast
3:53 AM 55.0 °F 46.9 °F 74% 30.10 in 10.0 mi Calm Calm - 0.00 in   Overcast
4:53 AM 53.1 °F 48.0 °F 83% 30.10 in 10.0 mi South 3.5 mph - 0.00 in   Overcast
5:53 AM 54.0 °F 46.9 °F 77% 30.12 in 10.0 mi South 3.5 mph - N/A   Overcast
6:53 AM 54.0 °F 48.0 °F 80% 30.12 in 10.0 mi Calm Calm - N/A   Overcast
7:53 AM 54.0 °F 48.0 °F 80% 30.13 in 10.0 mi Calm Calm - N/A   Overcast
8:53 AM 55.9 °F 48.9 °F 77% 30.14 in 10.0 mi Calm Calm - N/A   Overcast
9:53 AM 57.9 °F 51.1 °F 78% 30.14 in 10.0 mi Variable 3.5 mph - N/A   Overcast
10:53 AM 63.0 °F 52.0 °F 67% 30.13 in 10.0 mi West 5.8 mph - N/A   Partly Cloudy
11:53 AM 64.0 °F 52.0 °F 65% 30.12 in 10.0 mi Calm Calm - N/A   Mostly Cloudy
12:53 PM 66.0 °F 52.0 °F 60% 30.09 in 10.0 mi Variable 4.6 mph - N/A   Mostly Cloudy
1:53 PM 66.0 °F 48.9 °F 54% 30.06 in 10.0 mi Calm Calm - N/A   Overcast
2:53 PM 66.0 °F 48.9 °F 54% 30.04 in 10.0 mi Calm Calm - N/A   Overcast
3:53 PM 66.0 °F 50.0 °F 56% 30.02 in 10.0 mi Calm Calm - N/A   Overcast
4:53 PM 66.0 °F 48.9 °F 54% 30.01 in 10.0 mi SSE 3.5 mph - N/A   Overcast
5:53 PM 64.9 °F 50.0 °F 58% 30.00 in 10.0 mi SE 4.6 mph - N/A   Overcast
6:53 PM 64.0 °F 50.0 °F 60% 29.99 in 10.0 mi SE 5.8 mph - N/A   Overcast
7:53 PM 62.1 °F 51.1 °F 67% 30.00 in 10.0 mi Calm Calm - N/A   Mostly Cloudy
8:53 PM 61.0 °F 51.1 °F 70% 29.99 in 10.0 mi Calm Calm - N/A   Scattered Clouds
9:53 PM 61.0 °F 51.1 °F 70% 29.99 in 10.0 mi Calm Calm - N/A   Overcast
10:53 PM 59.0 °F 54.0 °F 83% 29.99 in 7.0 mi SSE 3.5 mph - 0.01 in Rain Light Rain
11:53 PM 57.0 °F 55.9 °F 96% 29.96 in 3.0 mi Calm Calm - 0.09 in Rain Rain